Location: Tuttlingen
(47.9853°N, 8.8165°E)
Time: 00:18:55
(UTC+01:00)

N. Korean satellite - Visible Passes

Search period start: 22 November 2017 00:00
Search period end: 02 December 2017 00:00
Orbit: 460 x 514 km, 97.2° (Epoch: 21 November)

Date Brightness Start Highest point End Pass type
(mag) Time Alt. Az. Time Alt. Az. Time Alt. Az.
22 Nov 9.8 06:19:25 10° NE 06:21:59 17° E 06:24:32 10° SE visible
22 Nov 7.0 18:31:29 10° S 18:34:58 61° W 18:38:33 10° NNW visible
23 Nov 6.4 18:07:58 10° SSE 18:11:29 68° ENE 18:15:05 10° N visible
24 Nov 7.5 07:05:03 10° NNE 07:08:46 56° E 07:12:28 10° S visible
24 Nov 7.1 17:44:48 10° SE 17:48:04 35° ENE 17:51:24 10° N visible
24 Nov 9.5 19:19:15 10° SW 19:21:43 18° W 19:24:15 10° NW visible
25 Nov 8.9 06:41:49 10° NNE 06:45:11 30° E 06:48:33 10° SSE visible
25 Nov 7.9 17:22:02 10° ESE 17:24:43 20° ENE 17:27:28 10° NNE visible
25 Nov 8.4 18:54:51 10° SSW 18:58:04 32° W 19:01:21 10° NNW visible
26 Nov 9.8 06:18:57 10° NE 06:21:31 17° E 06:24:06 10° SE visible
26 Nov 7.0 18:30:57 10° S 18:34:28 62° W 18:38:06 10° NNW visible
27 Nov 6.4 18:07:26 10° SSE 18:10:58 68° ENE 18:14:36 10° N visible
28 Nov 7.5 07:04:33 10° NNE 07:08:16 56° E 07:11:58 10° S visible
28 Nov 7.1 17:44:14 10° SE 17:47:32 35° ENE 17:50:54 10° N visible
28 Nov 9.4 19:18:39 10° SW 19:21:11 18° W 19:23:46 10° NW visible
29 Nov 8.9 06:41:18 10° NNE 06:44:39 30° E 06:48:01 10° SSE visible
29 Nov 7.9 17:21:26 10° ESE 17:24:11 21° ENE 17:26:57 10° NNE visible
29 Nov 8.4 18:54:15 10° SSW 18:57:30 32° W 19:00:51 10° NNW visible
30 Nov 9.8 06:18:24 10° NE 06:20:59 17° E 06:23:32 10° SE visible
30 Nov 7.0 18:30:20 10° S 18:33:54 63° W 18:37:33 10° NNW visible
01 Dec 6.5 18:06:48 10° SSE 18:10:22 67° ENE 18:14:03 10° N visible
01 Dec 10.2 19:43:53 10° W 19:44:22 10° W 19:44:50 10° W visible
